,,PA_Meas_PMT16A,,PR_Meas_QMR101_102,,RH_Meas_QMH101,,SR_Meas_QMS101,,TA_Meas_QMH101,,GenWind,,GenWind,
time,status,PA,status,PR,status,RH,status,SR,status,TA,status,DirAvg,status,SpdAvg,,,PA_Meas_PMT16A,,PR_Meas_QMR101_102,,RH_Meas_QMH101,,SR_Meas_QMS101,,TA_Meas_QMH101,,GenWind,,GenWind,
time,status,PA,status,PR,status,RH,status,SR,status,TA,status,DirAvg,status,SpdAvg,
2016-09-01, 14:51:04,VALID,919.336,VALID,0,INVALID,117.744,VALID,106.904,VALID,20.33,VALID,141,VALID,0,
2016-09-01, 14:52:04,VALID,918.434,VALID,0,INVALID,117.789,VALID,108.193,VALID,20.3284,VALID,143,VALID,0,
2016-09-01, 14:53:04,VALID,919.925,VALID,0,INVALID,117.805,VALID,108.301,VALID,20.3284,VALID,163,VALID,0,
2016-09-01, 14:54:04,VALID,920.938,VALID,0,INVALID,117.736,VALID,108.301,VALID,20.33,VALID,154,VALID,0,
2016-09-01, 14:55:04,VALID,919.132,VALID,0,INVALID,117.69,VALID,108.408,VALID,20.33,VALID,159,VALID,0,
2016-09-01, 15:16:04,VALID,920.862,VALID,0,INVALID,117.835,VALID,112.598,VALID,20.7365,VALID,47,VALID,0,
2016-09-01, 15:17:04,VALID,919.513,VALID,0,INVALID,117.85,VALID,115.607,VALID,20.7365,VALID,56,VALID,0,
2016-09-01, 15:18:04,VALID,920.686,VALID,0,INVALID,117.805,VALID,117.541,VALID,20.6975,VALID,55,VALID,0,
2016-09-01, 15:19:04,VALID,920.787,VALID,0,INVALID,117.843,VALID,119.689,VALID,20.756,VALID,146,VALID,0,
2016-09-01, 15:20:04,VALID,920.193,VALID,0,INVALID,117.812,VALID,122.59,VALID,20.7365,VALID,142,VALID,0,
2016-09-01, 15:21:04,VALID,919.794,VALID,0,INVALID,117.728,VALID,126.995,VALID,20.678,VALID,123,VALID,0,
2016-09-01, 15:22:04,VALID,919.582,VALID,0,INVALID,117.561,VALID,132.153,VALID,20.7365,VALID,108,VALID,0,
2016-09-01, 15:23:04,VALID,919.582,VALID,0,INVALID,117.614,VALID,137.74,VALID,20.8161,VALID,109,VALID,0,
2016-09-01, 15:24:04,VALID,919.557,VALID,0,INVALID,117.66,VALID,143.649,VALID,20.873,VALID,127,VALID,0,
2016-09-01, 15:25:04,VALID,919.583,VALID,0,INVALID,117.515,VALID,148.376,VALID,20.8925,VALID,127,VALID,0,
2016-09-01, 15:26:04,VALID,919.575,VALID,0,INVALID,117.256,VALID,150.955,VALID,20.9706,VALID,127,VALID,0,
2016-09-01, 15:27:04,VALID,919.573,VALID,0,INVALID,117.004,VALID,151.922,VALID,21.0096,VALID,127,VALID,0,
2016-09-01, 15:28:04,VALID,919.571,VALID,0,INVALID,116.768,VALID,152.352,VALID,21.1282,VALID,112,VALID,0,
2016-09-01, 15:29:04,VALID,919.579,VALID,0,INVALID,116.92,VALID,153.104,VALID,21.2047,VALID,108,VALID,0,
2016-09-01, 15:30:04,VALID,919.615,VALID,0,INVALID,117.103,VALID,153.211,VALID,21.3022,VALID,105,VALID,0,
2016-09-01, 15:31:04,VALID,919.607,VALID,0,INVALID,117.34,VALID,153.748,VALID,21.4193,VALID,62,VALID,0,
2016-09-01, 15:32:04,VALID,919.648,VALID,0,INVALID,117.164,VALID,156.112,VALID,21.4583,VALID,85,VALID,0,
2016-09-01, 15:33:04,VALID,919.655,VALID,0,INVALID,116.661,VALID,160.839,VALID,21.4388,VALID,125,VALID,0,
2016-09-01, 15:34:04,VALID,919.674,VALID,0,INVALID,116.326,VALID,167.931,VALID,21.3786,VALID,124,VALID,0,
2016-09-01, 15:35:04,VALID,919.66,VALID,0,INVALID,116.577,VALID,176.848,VALID,21.4193,VALID,119,VALID,0,
2016-09-01, 15:36:04,VALID,919.665,VALID,0,INVALID,116.638,VALID,185.551,VALID,21.4388,VALID,123,VALID,0,
2016-09-01, 15:37:04,VALID,919.648,VALID,0,INVALID,116.684,VALID,193.931,VALID,21.4973,VALID,129,VALID,0,
2016-09-01, 15:38:04,VALID,919.645,VALID,0,INVALID,116.615,VALID,198.121,VALID,21.5152,VALID,137,VALID,0,
2016-09-01, 15:39:04,VALID,919.686,VALID,0,INVALID,116.318,VALID,200.163,VALID,21.6144,VALID,134,VALID,0,
2016-09-01, 15:40:04,VALID,919.704,VALID,0,INVALID,115.952,VALID,202.312,VALID,21.6924,VALID,132,VALID,0,
2016-09-01, 15:41:04,VALID,919.692,VALID,0,INVALID,115.075,VALID,204.461,VALID,21.7298,VALID,132,VALID,0,
2016-09-01, 15:42:04,VALID,919.722,VALID,0,INVALID,115.03,VALID,201.774,VALID,21.7688,VALID,132,VALID,0,
2016-09-01, 15:43:04,VALID,919.748,VALID,0,INVALID,114.671,VALID,191.997,VALID,21.829,VALID,132,VALID,0,
2016-09-01, 15:44:04,VALID,919.768,VALID,0,INVALID,114.351,VALID,180.609,VALID,21.8859,VALID,124,VALID,0,
2016-09-01, 15:45:04,VALID,919.776,VALID,0,INVALID,113.604,VALID,171.584,VALID,21.9249,VALID,121,VALID,0,
2016-09-01, 15:46:04,VALID,919.787,VALID,0,INVALID,113.375,VALID,163.955,VALID,22.0047,VALID,143,VALID,0,
2016-09-01, 15:47:04,VALID,919.797,VALID,0,INVALID,113.833,VALID,156.327,VALID,22.0225,VALID,151,VALID,0,
2016-09-01, 15:48:04,VALID,919.791,VALID,0,INVALID,114.077,VALID,148.591,VALID,22.0225,VALID,153,VALID,0,
2016-09-01, 15:49:04,VALID,919.764,VALID,0,INVALID,113.985,VALID,141.393,VALID,22.0225,VALID,153,VALID,0,
2016-09-01, 15:50:04,VALID,919.784,VALID,0,INVALID,114.161,VALID,135.268,VALID,22.0827,VALID,155,VALID,0,
2016-09-01, 15:51:04,VALID,919.807,VALID,0,INVALID,113.551,VALID,132.045,VALID,22.1022,VALID,155,VALID,0,
2016-09-01, 15:52:04,VALID,919.75,VALID,0,INVALID,111.66,VALID,130.863,VALID,22.081,VALID,155,VALID,0,
2016-09-01, 15:53:04,VALID,919.807,VALID,0,INVALID,110.867,VALID,132.582,VALID,22.081,VALID,155,VALID,0,
2016-09-01, 15:54:04,VALID,919.735,VALID,0,VALID,104,VALID,136.665,VALID,22.1201,VALID,155,VALID,0,
2016-09-01, 15:55:04,VALID,919.762,VALID,0,VALID,99.417,VALID,139.996,VALID,22.1591,VALID,155,VALID,0,
2016-09-01, 15:56:04,VALID,919.747,VALID,0,VALID,95.9254,VALID,143.112,VALID,22.2567,VALID,155,VALID,0,
2016-09-01, 15:57:04,VALID,919.772,VALID,0,VALID,94.9878,VALID,145.798,VALID,22.3737,VALID,155,VALID,0,
2016-09-01, 15:58:04,VALID,919.777,VALID,0,VALID,90.7796,VALID,148.806,VALID,22.4501,VALID,155,VALID,0,
2016-09-01, 15:59:04,VALID,919.758,VALID,0,VALID,91.2828,VALID,153.426,VALID,22.5494,VALID,155,VALID,0,
2016-09-01, 16:00:04,VALID,919.794,VALID,0,VALID,93.1658,VALID,158.583,VALID,22.6665,VALID,155,VALID,0,
2016-09-01, 16:01:04,VALID,919.821,VALID,0,VALID,93.7756,VALID,161.699,VALID,22.7233,VALID,155,VALID,0,
2016-09-01, 16:02:04,VALID,919.817,VALID,0,VALID,93.5241,VALID,161.377,VALID,22.8421,VALID,155,VALID,0,
2016-09-01, 16:03:04,VALID,919.829,VALID,0,VALID,88.2105,VALID,157.294,VALID,22.9007,VALID,155,VALID,0,
2016-09-01, 16:04:04,VALID,919.835,VALID,0,VALID,85.8092,VALID,153.856,VALID,22.9007,VALID,155,VALID,0,
2016-09-01, 16:05:04,VALID,919.82,VALID,0,VALID,86.6782,VALID,152.459,VALID,22.8989,VALID,155,VALID,0,
2016-09-01, 16:06:04,VALID,919.865,VALID,0,VALID,90.2917,VALID,153.533,VALID,22.938,VALID,155,VALID,0,
2016-09-01, 16:07:04,VALID,919.911,VALID,0,VALID,95.5595,VALID,154.393,VALID,22.9787,VALID,155,VALID,0,
2016-09-01, 16:08:04,VALID,919.947,VALID,0,VALID,99.7676,VALID,152.781,VALID,22.9965,VALID,155,VALID,0,
2016-09-01, 16:09:04,VALID,919.981,VALID,0,VALID,99.2493,VALID,149.128,VALID,23.0959,VALID,155,VALID,0,
2016-09-01, 16:10:04,VALID,919.993,VALID,0,VALID,95.0716,VALID,144.723,VALID,23.1527,VALID,155,VALID,0,
2016-09-01, 16:11:04,VALID,919.986,VALID,0,VALID,85.306,VALID,141.93,VALID,23.213,VALID,156,VALID,0,
2016-09-01, 16:12:04,VALID,920.037,VALID,0,VALID,83.4383,VALID,142.574,VALID,23.1722,VALID,159,VALID,0,
2016-09-01, 16:13:04,VALID,920.037,VALID,0,VALID,84.2769,VALID,146.657,VALID,23.1739,VALID,159,VALID,0,
2016-09-01, 16:14:04,VALID,920.004,VALID,0,VALID,85.0773,VALID,154.93,VALID,23.1722,VALID,159,VALID,0,
2016-09-01, 16:15:04,VALID,919.982,VALID,0,VALID,86.2818,VALID,166.426,VALID,23.1527,VALID,159,VALID,0,
2016-09-01, 16:16:04,VALID,919.954,VALID,0,VALID,88.1496,VALID,179.749,VALID,23.1544,VALID,162,VALID,0,
2016-09-01, 16:17:04,VALID,919.929,VALID,0,VALID,89.7429,VALID,192.857,VALID,23.1544,VALID,169,VALID,0,
2016-09-01, 16:18:04,VALID,919.871,VALID,0,VALID,87.9742,VALID,203.279,VALID,23.1544,VALID,170,VALID,0,
2016-09-01, 16:19:04,VALID,919.849,VALID,0,VALID,88.8738,VALID,213.378,VALID,23.1154,VALID,186,VALID,0,
2016-09-01, 16:20:04,VALID,919.793,VALID,0,VALID,96.0474,VALID,227.668,VALID,23.0568,VALID,221,VALID,0,
2016-09-01, 16:21:04,VALID,919.741,VALID,0,VALID,103.16,VALID,263.446,VALID,23,VALID,222,VALID,0,
2016-09-01, 16:22:04,VALID,919.765,VALID,0,VALID,104,VALID,302.125,VALID,22.9592,VALID,215,VALID,0,
2016-09-01, 16:23:04,VALID,919.751,VALID,0,VALID,104,VALID,351.44,VALID,22.9787,VALID,215,VALID,0,
2016-09-01, 16:24:04,VALID,919.798,VALID,0,VALID,99.4398,VALID,327.696,VALID,23.0178,VALID,203,VALID,0,
2016-09-01, 16:25:04,VALID,919.839,VALID,0,VALID,98.0981,VALID,355.63,VALID,23.0551,VALID,203,VALID,0,
2016-09-01, 16:26:04,VALID,919.911,VALID,0,VALID,96.8707,VALID,457.484,VALID,23.0568,VALID,165,VALID,0,
2016-09-01, 16:27:04,VALID,919.92,VALID,0.2,VALID,95.2088,VALID,594.472,VALID,22.9983,VALID,170,VALID,0,
2016-09-01, 16:28:04,VALID,919.907,VALID,0,VALID,104,VALID,494.229,VALID,23.0178,VALID,142,VALID,0,
2016-09-01, 16:29:04,VALID,919.889,VALID,0,INVALID,110.143,VALID,465.22,VALID,23.0763,VALID,149,VALID,0,
2016-09-01, 16:30:04,VALID,919.881,VALID,0,VALID,88.9958,VALID,808.172,VALID,23.0763,VALID,148,VALID,0,
2016-09-01, 16:31:04,VALID,919.874,VALID,0,VALID,103.808,VALID,760.254,VALID,23.2307,VALID,180,VALID,0.0867188,
2016-09-01, 16:32:04,VALID,919.829,VALID,0,VALID,88.0809,VALID,638.845,VALID,23.4259,VALID,176,VALID,0,
2016-09-01, 16:33:04,VALID,919.821,VALID,0,VALID,83.3697,VALID,714.054,VALID,23.543,VALID,169,VALID,0,
2016-09-01, 16:34:04,VALID,919.833,VALID,0,VALID,82.5692,VALID,813.544,VALID,23.5626,VALID,129,VALID,0,
2016-09-01, 16:35:04,VALID,919.843,VALID,0,VALID,80.9531,VALID,302.017,VALID,23.5643,VALID,99,VALID,0,
2016-09-01, 16:36:04,VALID,919.849,VALID,0,VALID,85.3136,VALID,377.011,VALID,23.5448,VALID,124,VALID,0,
2016-09-01, 16:37:04,VALID,919.815,VALID,0,VALID,99.417,VALID,295.785,VALID,23.5821,VALID,153,VALID,0,
2016-09-01, 16:38:04,VALID,919.81,VALID,0,VALID,86.6325,VALID,420.31,VALID,23.6229,VALID,178,VALID,0,
2016-09-01, 16:39:04,VALID,919.824,VALID,0,VALID,92.1214,VALID,474.997,VALID,23.7187,VALID,154,VALID,0,
2016-09-01, 16:40:04,VALID,919.81,VALID,0,VALID,89.2473,VALID,498.634,VALID,23.8163,VALID,164,VALID,0,
2016-09-01, 16:41:04,VALID,919.798,VALID,0,VALID,92.9904,VALID,334.464,VALID,23.9139,VALID,165,VALID,0,
2016-09-01, 16:42:04,VALID,919.768,VALID,0,VALID,95.4223,VALID,525.495,VALID,23.9725,VALID,181,VALID,0,
2016-09-01, 16:43:04,VALID,919.771,VALID,0,VALID,82.5082,VALID,425.897,VALID,24.0311,VALID,183,VALID,0,
2016-09-01, 16:44:04,VALID,919.758,VALID,0,VALID,81.0293,VALID,405.805,VALID,24.1677,VALID,187,VALID,0,
2016-09-01, 16:45:04,VALID,919.74,VALID,0,VALID,83.0114,VALID,283.215,VALID,24.2477,VALID,150,VALID,0,
2016-09-01, 16:46:04,VALID,919.696,VALID,0,VALID,84.4598,VALID,462.104,VALID,24.1482,VALID,152,VALID,0.413672,
2016-09-01, 16:47:04,VALID,919.688,VALID,0,VALID,84.7876,VALID,322.968,VALID,23.9902,VALID,167,VALID,0.0140625,
2016-09-01, 16:48:04,VALID,919.689,VALID,0,VALID,81.38,VALID,400.433,VALID,23.8145,VALID,142,VALID,0.755469,
2016-09-01, 16:49:04,VALID,919.712,VALID,0,VALID,82.8055,VALID,272.686,VALID,23.7187,VALID,145,VALID,0.248437,
2016-09-01, 16:50:04,VALID,919.695,VALID,0,VALID,83.3163,VALID,726.732,VALID,23.6193,VALID,137,VALID,0.0933594,
2016-09-01, 16:51:04,VALID,919.671,VALID,0,VALID,85.3441,VALID,289.339,VALID,23.6584,VALID,152,VALID,0,
2016-09-01, 16:52:04,VALID,919.652,VALID,0,VALID,86.0684,VALID,343.274,VALID,23.7773,VALID,155,VALID,0,
2016-09-01, 16:53:04,VALID,919.642,VALID,0,VALID,88.4545,VALID,463.501,VALID,23.8536,VALID,144,VALID,0,
2016-09-01, 16:54:04,VALID,919.668,VALID,0,VALID,85.0011,VALID,485.097,VALID,23.9316,VALID,124,VALID,0,
2016-09-01, 16:55:04,VALID,919.664,VALID,0,VALID,81.6392,VALID,581.686,VALID,23.992,VALID,120,VALID,0.125,
2016-09-01, 16:56:04,VALID,919.676,VALID,0,VALID,78.4373,VALID,398.392,VALID,24.0097,VALID,142,VALID,0,
2016-09-01, 16:57:04,VALID,919.714,VALID,0,VALID,83.8652,VALID,416.227,VALID,24.1269,VALID,131,VALID,0,
2016-09-01, 16:58:04,VALID,919.711,VALID,0,VALID,81.7688,VALID,400.111,VALID,24.2245,VALID,114,VALID,0,
2016-09-01, 16:59:04,VALID,919.743,VALID,0,VALID,80.1755,VALID,616.282,VALID,24.283,VALID,111,VALID,0,
2016-09-01, 17:00:04,VALID,919.739,VALID,0,VALID,79.4207,VALID,584.05,VALID,24.4569,VALID,146,VALID,0,
2016-09-01, 17:01:04,VALID,919.746,VALID,0,VALID,76.4247,VALID,553.429,VALID,24.7126,VALID,146,VALID,0,
2016-09-01, 17:02:04,VALID,919.753,VALID,0,VALID,73.9776,VALID,545.371,VALID,24.8883,VALID,103,VALID,0,
2016-09-01, 17:03:04,VALID,919.737,VALID,0,VALID,78.605,VALID,521.842,VALID,24.8102,VALID,85,VALID,0,
2016-09-01, 17:04:04,VALID,919.764,VALID,0,VALID,76.4781,VALID,619.398,VALID,24.7126,VALID,125,VALID,0,
2016-09-01, 17:05:04,VALID,919.77,VALID,0,VALID,76.2418,VALID,587.488,VALID,24.7516,VALID,108,VALID,0.348047,
2016-09-01, 17:06:04,VALID,919.798,VALID,0,VALID,79.0091,VALID,578.893,VALID,24.6149,VALID,101,VALID,0.0414063,
2016-09-01, 17:07:04,VALID,919.814,VALID,0,VALID,76.5086,VALID,354.126,VALID,24.5759,VALID,125,VALID,0,
2016-09-01, 17:08:04,VALID,919.817,VALID,0,VALID,76.4019,VALID,339.299,VALID,24.5564,VALID,126,VALID,0,
2016-09-01, 17:09:04,VALID,919.804,VALID,0,VALID,75.853,VALID,329.092,VALID,24.535,VALID,129,VALID,0,
2016-09-01, 17:10:04,VALID,919.783,VALID,0,VALID,75.5252,VALID,333.175,VALID,24.535,VALID,131,VALID,0,
2016-09-01, 17:11:04,VALID,919.774,VALID,0,VALID,75.8759,VALID,328.77,VALID,24.693,VALID,132,VALID,0,
2016-09-01, 17:12:04,VALID,919.738,VALID,0,VALID,74.3283,VALID,362.829,VALID,24.7888,VALID,132,VALID,0,
2016-09-01, 17:13:04,VALID,919.71,VALID,0,VALID,73.8557,VALID,327.481,VALID,24.9469,VALID,132,VALID,0,
2016-09-01, 17:14:04,VALID,919.711,VALID,0,VALID,74.1987,VALID,322.753,VALID,25.0621,VALID,132,VALID,0,
2016-09-01, 17:15:04,VALID,919.711,VALID,0,VALID,74.6256,VALID,341.448,VALID,25.2183,VALID,132,VALID,0,
2016-09-01, 17:16:04,VALID,919.652,VALID,0,VALID,76.1884,VALID,448.674,VALID,25.2965,VALID,74,VALID,0.567578,
2016-09-01, 17:17:04,VALID,919.648,VALID,0,VALID,75.5328,VALID,598.984,VALID,25.2788,VALID,38,VALID,0,
2016-09-01, 17:18:04,VALID,919.657,VALID,0,VALID,74.679,VALID,355.738,VALID,25.2574,VALID,53,VALID,0.600391,
2016-09-01, 17:19:04,VALID,919.673,VALID,0,VALID,75.8225,VALID,389.797,VALID,25.0426,VALID,45,VALID,0,
2016-09-01, 17:20:04,VALID,919.683,VALID,0,VALID,77.1109,VALID,346.82,VALID,24.8845,VALID,42,VALID,0,
2016-09-01, 17:21:04,VALID,919.651,VALID,0,VALID,75.2812,VALID,365.622,VALID,24.904,VALID,35,VALID,0,
2016-09-01, 17:22:04,VALID,919.665,VALID,0,VALID,73.566,VALID,393.342,VALID,24.8864,VALID,35,VALID,0,
2016-09-01, 17:23:04,VALID,919.613,VALID,0,VALID,77.2633,VALID,440.616,VALID,24.9255,VALID,35,VALID,0,
2016-09-01, 17:24:04,VALID,919.635,VALID,0,VALID,78.2391,VALID,552.14,VALID,25.0621,VALID,34,VALID,0,
2016-09-01, 17:25:04,VALID,919.567,VALID,0,VALID,78.4754,VALID,1092.46,VALID,25.2555,VALID,45,VALID,0,
2016-09-01, 17:26:04,VALID,919.559,VALID,0,VALID,79.0701,VALID,665.705,VALID,25.5289,VALID,3,VALID,0,
2016-09-01, 17:27:04,VALID,919.546,VALID,0,VALID,79.2378,VALID,574.166,VALID,25.607,VALID,359,VALID,0.274219,
2016-09-01, 17:28:04,VALID,919.505,VALID,0,VALID,77.0346,VALID,815.049,VALID,25.7066,VALID,21,VALID,0.0078125,
2016-09-01, 17:29:04,VALID,919.456,VALID,0,VALID,77.4387,VALID,1016.39,VALID,25.7241,VALID,359,VALID,1.41484,
2016-09-01, 17:30:04,VALID,919.457,VALID,0,VALID,75.7234,VALID,1032.62,VALID,25.646,VALID,10,VALID,0,
2016-09-01, 17:31:04,VALID,919.447,VALID,0,VALID,76.5925,VALID,715.343,VALID,25.607,VALID,358,VALID,0,
2016-09-01, 17:32:04,VALID,919.424,VALID,0,VALID,76.257,VALID,864.364,VALID,25.6655,VALID,336,VALID,0,
2016-09-01, 17:33:04,VALID,919.383,VALID,0,VALID,77.3929,VALID,491.113,VALID,25.8413,VALID,312,VALID,0,
2016-09-01, 17:34:04,VALID,919.405,VALID,0,VALID,77.4082,VALID,598.77,VALID,26.0366,VALID,312,VALID,0,
2016-09-01, 17:35:04,VALID,919.385,VALID,0,VALID,73.6956,VALID,547.628,VALID,26.2514,VALID,356,VALID,0,
2016-09-01, 17:36:04,VALID,919.38,VALID,0,VALID,74.6561,VALID,394.524,VALID,26.271,VALID,20,VALID,0,
2016-09-01, 17:37:04,VALID,919.395,VALID,0,VALID,73.9929,VALID,449.211,VALID,26.271,VALID,35,VALID,1.41836,
2016-09-01, 17:38:04,VALID,919.378,VALID,0,VALID,73.9166,VALID,685.152,VALID,26.2885,VALID,36,VALID,0.456641,
2016-09-01, 17:39:04,VALID,919.346,VALID,0,VALID,75.1898,VALID,389.904,VALID,26.4838,VALID,37,VALID,0.805859,
2016-09-01, 17:40:04,VALID,919.371,VALID,0,VALID,71.7821,VALID,327.158,VALID,26.4663,VALID,31,VALID,0.612109,
2016-09-01, 17:41:04,VALID,919.31,VALID,0,VALID,71.3552,VALID,312.439,VALID,26.2124,VALID,11,VALID,0.163672,
2016-09-01, 17:42:04,VALID,919.344,VALID,0,VALID,73.9395,VALID,304.166,VALID,26.0171,VALID,360,VALID,0,
2016-09-01, 17:43:04,VALID,919.322,VALID,0,VALID,74.679,VALID,307.926,VALID,25.8804,VALID,18,VALID,0.598047,
2016-09-01, 17:44:04,VALID,919.306,VALID,0,VALID,76.1884,VALID,325.654,VALID,25.7827,VALID,21,VALID,0,
2016-09-01, 17:45:04,VALID,919.301,VALID,0,VALID,74.6256,VALID,352.407,VALID,25.7632,VALID,333,VALID,0.671484,
2016-09-01, 17:46:04,VALID,919.27,VALID,0,VALID,77.2557,VALID,371.531,VALID,25.7046,VALID,6,VALID,0,
2016-09-01, 17:47:04,VALID,919.239,VALID,0,VALID,77.5378,VALID,401.185,VALID,25.7046,VALID,34,VALID,0.821484,
2016-09-01, 17:48:04,VALID,919.259,VALID,0,VALID,78.0104,VALID,432.988,VALID,25.7241,VALID,16,VALID,0.19375,
2016-09-01, 17:49:04,VALID,919.256,VALID,0,VALID,76.7907,VALID,514.106,VALID,25.8413,VALID,12,VALID,0.777344,
2016-09-01, 17:50:04,VALID,919.204,VALID,0,VALID,74.6409,VALID,676.235,VALID,25.9194,VALID,44,VALID,0,
2016-09-01, 17:51:04,VALID,919.215,VALID,0,VALID,75.3956,VALID,543.76,VALID,26.0561,VALID,24,VALID,0,
2016-09-01, 17:52:04,VALID,919.205,VALID,0,VALID,73.0552,VALID,502.717,VALID,26.1342,VALID,343,VALID,0.003125,
2016-09-01, 17:53:04,VALID,919.194,VALID,0,VALID,74.9458,VALID,476.716,VALID,26.0171,VALID,9,VALID,1.46914,
2016-09-01, 17:54:04,VALID,919.223,VALID,0,VALID,72.5216,VALID,465.435,VALID,26.0561,VALID,342,VALID,0,
2016-09-01, 17:55:04,VALID,919.209,VALID,0,VALID,71.1112,VALID,443.41,VALID,25.9585,VALID,336,VALID,0.00429688,
2016-09-01, 17:56:04,VALID,919.224,VALID,0,VALID,73.6041,VALID,445.451,VALID,25.8804,VALID,322,VALID,0,
2016-09-01, 17:57:04,VALID,919.221,VALID,0,VALID,72.9561,VALID,459.096,VALID,25.8804,VALID,273,VALID,0,
2016-09-01, 17:58:04,VALID,919.201,VALID,0,VALID,72.4453,VALID,466.295,VALID,25.8022,VALID,293,VALID,0.538672,
2016-09-01, 17:59:04,VALID,919.188,VALID,0,VALID,72.1404,VALID,508.412,VALID,25.4898,VALID,273,VALID,0.573828,
2016-09-01, 18:00:04,VALID,919.155,VALID,0,VALID,73.8175,VALID,651.093,VALID,25.236,VALID,251,VALID,0.558203,
2016-09-01, 18:01:04,VALID,919.148,VALID,0,VALID,74.9992,VALID,618.754,VALID,25.236,VALID,286,VALID,0,
2016-09-01, 18:02:04,VALID,919.104,VALID,0,VALID,77.4692,VALID,471.344,VALID,25.5289,VALID,22,VALID,1.41094,
2016-09-01, 18:03:04,VALID,919.064,VALID,0,VALID,75.6624,VALID,365.73,VALID,25.7437,VALID,358,VALID,0.0183594,
2016-09-01, 18:04:04,VALID,919.099,VALID,0,VALID,72.026,VALID,338.762,VALID,25.8999,VALID,13,VALID,0,
2016-09-01, 18:05:04,VALID,919.073,VALID,0,VALID,73.2763,VALID,332.423,VALID,26.0171,VALID,346,VALID,0.577344,
2016-09-01, 18:06:04,VALID,919.066,VALID,0,VALID,72.6893,VALID,336.828,VALID,25.937,VALID,350,VALID,0.548047,
2016-09-01, 18:07:04,VALID,919.09,VALID,0,VALID,72.2624,VALID,353.159,VALID,25.8218,VALID,356,VALID,1.24219,
2016-09-01, 18:08:04,VALID,919.08,VALID,0,VALID,73.322,VALID,370.135,VALID,25.6441,VALID,21,VALID,0.571094,
2016-09-01, 18:09:04,VALID,919.047,VALID,0,VALID,72.6207,VALID,380.986,VALID,25.5464,VALID,8,VALID,1.24961,
2016-09-01, 18:10:04,VALID,919.069,VALID,0,VALID,72.7579,VALID,390.549,VALID,25.4293,VALID,15,VALID,1.28203,
2016-09-01, 18:11:04,VALID,919.084,VALID,0,VALID,74.5418,VALID,410.21,VALID,25.3922,VALID,47,VALID,0.254687,
2016-09-01, 18:12:04,VALID,919.093,VALID,0,VALID,76.6839,VALID,414.293,VALID,25.4098,VALID,333,VALID,0.0289063,
2016-09-01, 18:13:04,VALID,919.079,VALID,0,VALID,77.7055,VALID,430.409,VALID,25.5289,VALID,3,VALID,0.00351562,
2016-09-01, 18:14:04,VALID,919.068,VALID,0,VALID,75.6167,VALID,421.707,VALID,25.6265,VALID,350,VALID,0,
2016-09-01, 18:15:04,VALID,919.054,VALID,0,VALID,74.8619,VALID,413.971,VALID,25.6831,VALID,19,VALID,0.0664063,
2016-09-01, 18:16:04,VALID,919.045,VALID,0,VALID,75.7158,VALID,373.251,VALID,25.7417,VALID,18,VALID,0.00117188,
2016-09-01, 18:17:04,VALID,919.037,VALID,0,VALID,75.8911,VALID,357.242,VALID,25.7827,VALID,19,VALID,0,
2016-09-01, 18:18:04,VALID,919.027,VALID,0,VALID,76.7754,VALID,351.333,VALID,25.8589,VALID,23,VALID,0.00820312,
2016-09-01, 18:19:04,VALID,919.022,VALID,0,VALID,74.7857,VALID,312.869,VALID,25.9174,VALID,19,VALID,0,
2016-09-01, 18:20:04,VALID,918.983,VALID,0,VALID,75.3498,VALID,285.364,VALID,25.7612,VALID,34,VALID,0.08125,
2016-09-01, 18:21:04,VALID,918.998,VALID,0,VALID,74.4427,VALID,270.322,VALID,25.8003,VALID,68,VALID,0,
2016-09-01, 18:22:04,VALID,918.962,VALID,0,VALID,74.1987,VALID,258.718,VALID,25.9174,VALID,68,VALID,0,
2016-09-01, 18:23:04,VALID,918.947,VALID,0,VALID,75.5328,VALID,255.925,VALID,26.0737,VALID,27,VALID,0.217578,
2016-09-01, 18:24:04,VALID,918.926,VALID,0,VALID,75.1288,VALID,259.363,VALID,26.1518,VALID,24,VALID,0.399219,
2016-09-01, 18:25:04,VALID,918.92,VALID,0,VALID,75.6548,VALID,269.14,VALID,26.0952,VALID,14,VALID,0,
2016-09-01, 18:26:04,VALID,918.88,VALID,0,VALID,74.5036,VALID,284.612,VALID,26.0757,VALID,41,VALID,0.1,
2016-09-01, 18:27:04,VALID,918.881,VALID,0,VALID,74.5418,VALID,308.571,VALID,26.0952,VALID,25,VALID,0,
2016-09-01, 18:28:04,VALID,918.845,VALID,0,VALID,74.5265,VALID,325.869,VALID,26.0757,VALID,23,VALID,0,
2016-09-01, 18:29:04,VALID,918.834,VALID,0,VALID,76.6611,VALID,340.803,VALID,26.0561,VALID,23,VALID,0,
2016-09-01, 18:30:04,VALID,918.795,VALID,0,VALID,76.2113,VALID,340.803,VALID,26.1342,VALID,23,VALID,0,
2016-09-01, 18:31:04,VALID,918.786,VALID,0,VALID,74.6714,VALID,319.96,VALID,26.2514,VALID,18,VALID,0,
2016-09-01, 18:32:04,VALID,918.736,VALID,0,VALID,73.4364,VALID,284.182,VALID,26.3491,VALID,340,VALID,0,
2016-09-01, 18:33:04,VALID,918.703,VALID,0,VALID,73.9853,VALID,268.281,VALID,26.3686,VALID,340,VALID,0,
2016-09-01, 18:34:04,VALID,918.66,VALID,0,VALID,73.5736,VALID,255.817,VALID,26.4468,INVALID,360,VALID,0,
2016-09-01, 18:35:04,VALID,918.675,VALID,0,VALID,71.5458,VALID,239.809,VALID,26.5054,INVALID,360,VALID,0,
2016-09-01, 18:36:04,VALID,918.637,VALID,0,VALID,71.805,VALID,232.18,VALID,26.4252,INVALID,360,VALID,0,
2016-09-01, 18:37:04,VALID,918.64,VALID,0,VALID,72.392,VALID,232.718,VALID,26.4077,VALID,351,VALID,0,
2016-09-01, 18:38:04,VALID,918.635,VALID,0,VALID,73.0552,VALID,236.908,VALID,26.4077,INVALID,360,VALID,0,
2016-09-01, 18:39:04,VALID,918.631,VALID,0,VALID,70.6767,VALID,250.768,VALID,26.4272,VALID,241,VALID,0,
2016-09-01, 18:40:04,VALID,918.601,VALID,0,VALID,71.3323,VALID,275.801,VALID,26.3296,INVALID,360,VALID,0,
2016-09-01, 18:41:04,VALID,918.556,VALID,0,VALID,72.1861,VALID,298.579,VALID,26.2905,INVALID,360,VALID,0,
2016-09-01, 18:42:04,VALID,918.554,VALID,0,VALID,72.0641,VALID,294.496,VALID,26.1928,VALID,328,VALID,0,
2016-09-01, 18:43:04,VALID,918.53,VALID,0,VALID,72.674,VALID,261.297,VALID,26.1733,VALID,343,VALID,0,
2016-09-01, 18:44:04,VALID,918.483,VALID,0,VALID,71.3475,VALID,179.964,VALID,26.1167,VALID,307,VALID,0,
2016-09-01, 18:45:04,VALID,918.468,VALID,0,VALID,73.1772,VALID,129.037,VALID,25.8999,VALID,35,VALID,0.317969,
2016-09-01, 18:46:04,VALID,918.491,VALID,0,VALID,73.9853,VALID,100.028,VALID,25.7632,VALID,360,VALID,0,
2016-09-01, 18:47:04,VALID,918.498,VALID,0,VALID,73.0552,VALID,82.085,VALID,25.5874,VALID,217,VALID,0,
2016-09-01, 18:48:04,VALID,918.496,VALID,0,VALID,73.1162,VALID,70.8037,VALID,25.3531,VALID,215,VALID,0,
2016-09-01, 18:49:04,VALID,918.542,VALID,0,VALID,74.3664,VALID,65.754,VALID,25.2555,VALID,215,VALID,0,
2016-09-01, 18:50:04,VALID,918.526,VALID,0,VALID,74.4045,VALID,73.7046,VALID,25.2183,VALID,89,VALID,0,
2016-09-01, 18:51:04,VALID,918.522,VALID,0,VALID,75.1516,VALID,88.9613,VALID,25.0426,VALID,92,VALID,0.0597656,
2016-09-01, 18:52:04,VALID,918.505,VALID,0,VALID,74.0462,VALID,106.044,VALID,24.7107,VALID,96,VALID,0.283594,